• In Uzbekistan
  • List of Countries
  • For 7 days
  • Water Temperature
  • Satellite Maps
  • Weather Map
  • Weather Widgets
  • user-avatar
    Login

    Hourly Weather Salta

    Today, 22 January, Sunday

    Time Temperature Precipitation Wind Pressure Humidity
    00:00 +23°C° 0 mm 1 mps 653 mmHg 56%
    01:00 +22°C° 0 mm 1 mps 653 mmHg 58%
    02:00 +22°C° 0 mm 1 mps 652 mmHg 59%
    03:00 +21°C° 0 mm 1 mps 652 mmHg 60%
    04:00 +21°C° 0 mm 1 mps 652 mmHg 61%
    05:00 +18°C° 0 mm 0 mps 651 mmHg 62%
    06:00 +22°C° 0 mm 1 mps 652 mmHg 56%
    07:00 +24°C° 0 mm 1 mps 652 mmHg 50%
    08:00 +26°C° 0 mm 1 mps 653 mmHg 44%
    09:00 +27°C° 0 mm 1 mps 653 mmHg 41%
    10:00 +28°C° 0 mm 2 mps 653 mmHg 38%
    11:00 +30°C° 0 mm 2 mps 653 mmHg 35%
    12:00 +31°C° 0 mm 3 mps 653 mmHg 33%
    13:00 +31°C° 0 mm 3 mps 652 mmHg 32%
    14:00 +33°C° 0 mm 3 mps 652 mmHg 30%
    15:00 +33°C° 0 mm 3 mps 652 mmHg 32%
    16:00 +31°C° 0 mm 3 mps 651 mmHg 33%
    17:00 +31°C° 0 mm 3 mps 651 mmHg 35%
    18:00 +29°C° 0.1 mm 3 mps 651 mmHg 43%
    19:00 +27°C° 0.1 mm 2 mps 651 mmHg 50%
    20:00 +25°C° 0.1 mm 2 mps 651 mmHg 58%
    21:00 +24°C° 0.3 mm 2 mps 651 mmHg 62%
    22:00 +23°C° 0.3 mm 2 mps 652 mmHg 66%
    23:00 +23°C° 0.3 mm 1 mps 652 mmHg 70%

    Tomorrow, 23 January, Monday

    Time Temperature Precipitation Wind Pressure Humidity
    00:00 +22°C° 0.6 mm 1 mps 651 mmHg 73%
    01:00 +22°C° 0.6 mm 1 mps 651 mmHg 76%
    02:00 +20°C° 0.6 mm 2 mps 651 mmHg 79%
    03:00 +20°C° 1 mm 2 mps 651 mmHg 82%
    04:00 +19°C° 1 mm 2 mps 650 mmHg 85%
    05:00 +19°C° 1 mm 2 mps 650 mmHg 88%
    06:00 +19°C° 1.7 mm 2 mps 651 mmHg 87%
    07:00 +19°C° 1.7 mm 2 mps 651 mmHg 87%
    08:00 +19°C° 1.7 mm 2 mps 651 mmHg 86%
    09:00 +19°C° 2.3 mm 2 mps 651 mmHg 83%
    10:00 +20°C° 2.3 mm 2 mps 652 mmHg 80%
    11:00 +20°C° 2.3 mm 2 mps 652 mmHg 77%
    12:00 +21°C° 1.3 mm 2 mps 652 mmHg 73%
    13:00 +21°C° 1.3 mm 2 mps 652 mmHg 70%
    14:00 +23°C° 1.3 mm 1 mps 651 mmHg 66%
    15:00 +23°C° 0.2 mm 1 mps 651 mmHg 63%
    16:00 +23°C° 0.2 mm 1 mps 651 mmHg 60%
    17:00 +24°C° 0.2 mm 1 mps 651 mmHg 56%
    18:00 +22°C° 0 mm 1 mps 651 mmHg 61%
    19:00 +21°C° 0 mm 1 mps 650 mmHg 66%
    20:00 +20°C° 0 mm 1 mps 650 mmHg 71%
    21:00 +19°C° 0 mm 1 mps 650 mmHg 72%
    22:00 +19°C° 0 mm 1 mps 651 mmHg 72%
    23:00 +18°C° 0 mm 1 mps 651 mmHg 73%

    Day after tomorrow, 24 January, Tuesday

    Time Temperature Precipitation Wind Pressure Humidity
    00:00 +18°C° 0 mm 1 mps 650 mmHg 73%
    01:00 +16°C° 0 mm 1 mps 649 mmHg 74%
    02:00 +15°C° 0 mm 0 mps 649 mmHg 75%
    03:00 +15°C° 0 mm 0 mps 649 mmHg 75%
    04:00 +14°C° 0 mm 0 mps 648 mmHg 75%
    05:00 +15°C° 0 mm 1 mps 648 mmHg 75%
    06:00 +18°C° 0 mm 1 mps 649 mmHg 66%
    07:00 +21°C° 0 mm 1 mps 650 mmHg 57%
    08:00 +23°C° 0 mm 1 mps 652 mmHg 49%
    09:00 +25°C° 0 mm 1 mps 652 mmHg 45%
    10:00 +26°C° 0 mm 2 mps 652 mmHg 42%
    11:00 +28°C° 0 mm 2 mps 653 mmHg 39%
    12:00 +29°C° 0 mm 2 mps 653 mmHg 37%
    13:00 +29°C° 0 mm 3 mps 652 mmHg 35%
    14:00 +30°C° 0 mm 3 mps 652 mmHg 33%
    15:00 +30°C° 0.1 mm 3 mps 652 mmHg 35%
    16:00 +30°C° 0.1 mm 3 mps 652 mmHg 37%
    17:00 +29°C° 0.1 mm 3 mps 652 mmHg 39%
    18:00 +27°C° 0.3 mm 3 mps 652 mmHg 48%
    19:00 +24°C° 0.3 mm 2 mps 652 mmHg 57%
    20:00 +21°C° 0.3 mm 2 mps 652 mmHg 66%
    21:00 +21°C° 0.2 mm 2 mps 653 mmHg 66%
    22:00 +20°C° 0.2 mm 2 mps 653 mmHg 66%
    23:00 +20°C° 0.2 mm 2 mps 654 mmHg 66%

    25 January, Wednesday

    Time Temperature Precipitation Wind Pressure Humidity
    00:00 +19°C° 0 mm 2 mps 654 mmHg 65%
    01:00 +19°C° 0 mm 2 mps 653 mmHg 63%
    02:00 +19°C° 0 mm 2 mps 653 mmHg 62%
    03:00 +20°C° 0 mm 1 mps 654 mmHg 61%
    04:00 +20°C° 0 mm 1 mps 654 mmHg 60%
    05:00 +19°C° 0 mm 1 mps 654 mmHg 59%
    06:00 +20°C° 0 mm 2 mps 655 mmHg 57%
    07:00 +21°C° 0 mm 2 mps 656 mmHg 54%
    08:00 +23°C° 0 mm 2 mps 657 mmHg 51%
    09:00 +24°C° 0 mm 2 mps 657 mmHg 47%
    10:00 +26°C° 0 mm 3 mps 658 mmHg 43%
    11:00 +27°C° 0 mm 3 mps 658 mmHg 39%
    12:00 +28°C° 0 mm 3 mps 657 mmHg 39%
    13:00 +28°C° 0 mm 3 mps 657 mmHg 39%
    14:00 +29°C° 0 mm 4 mps 656 mmHg 39%
    15:00 +28°C° 0 mm 3 mps 656 mmHg 42%
    16:00 +28°C° 0 mm 3 mps 655 mmHg 45%
    17:00 +27°C° 0 mm 3 mps 654 mmHg 48%
    18:00 +25°C° 0 mm 2 mps 654 mmHg 55%
    19:00 +23°C° 0 mm 1 mps 654 mmHg 62%
    20:00 +22°C° 0 mm 1 mps 654 mmHg 70%
    21:00 +21°C° 0 mm 1 mps 654 mmHg 70%
    22:00 +21°C° 0 mm 1 mps 655 mmHg 71%
    23:00 +20°C° 0 mm 1 mps 655 mmHg 72%

    26 January, Thursday

    Time Temperature Precipitation Wind Pressure Humidity
    00:00 +20°C° 0 mm 1 mps 654 mmHg 73%
    01:00 +19°C° 0 mm 1 mps 654 mmHg 74%
    02:00 +19°C° 0 mm 1 mps 653 mmHg 74%
    03:00 +16°C° 0 mm 0 mps 653 mmHg 75%
    04:00 +16°C° 0 mm 0 mps 654 mmHg 76%
    05:00 +16°C° 0 mm 0 mps 654 mmHg 78%
    06:00 +18°C° 0 mm 0 mps 655 mmHg 68%
    07:00 +22°C° 0 mm 1 mps 656 mmHg 57%
    08:00 +24°C° 0 mm 1 mps 657 mmHg 47%
    09:00 +26°C° 0 mm 1 mps 657 mmHg 44%
    10:00 +27°C° 0 mm 2 mps 657 mmHg 40%
    11:00 +29°C° 0 mm 2 mps 657 mmHg 36%
    12:00 +30°C° 0 mm 2 mps 657 mmHg 34%
    13:00 +31°C° 0 mm 3 mps 656 mmHg 32%
    14:00 +31°C° 0 mm 3 mps 656 mmHg 30%
    15:00 +31°C° 0 mm 3 mps 656 mmHg 30%
    16:00 +31°C° 0 mm 3 mps 655 mmHg 31%
    17:00 +31°C° 0 mm 3 mps 655 mmHg 32%
    18:00 +28°C° 0 mm 3 mps 655 mmHg 39%
    19:00 +25°C° 0 mm 2 mps 655 mmHg 46%
    20:00 +22°C° 0 mm 1 mps 655 mmHg 53%
    21:00 +22°C° 0 mm 1 mps 655 mmHg 54%
    22:00 +21°C° 0 mm 1 mps 655 mmHg 56%
    23:00 +20°C° 0 mm 1 mps 655 mmHg 58%

    27 January, Friday

    Time Temperature Precipitation Wind Pressure Humidity
    00:00 +20°C° 0 mm 1 mps 655 mmHg 59%
    01:00 +19°C° 0 mm 1 mps 655 mmHg 60%
    02:00 +19°C° 0 mm 1 mps 654 mmHg 61%
    03:00 +18°C° 0 mm 1 mps 654 mmHg 63%
    04:00 +18°C° 0 mm 1 mps 654 mmHg 64%
    05:00 +16°C° 0 mm 0 mps 654 mmHg 66%
    06:00 +18°C° 0 mm 0 mps 655 mmHg 57%
    07:00 +21°C° 0 mm 0 mps 657 mmHg 47%
    08:00 +23°C° 0 mm 0 mps 658 mmHg 38%
    09:00 +27°C° 0 mm 1 mps 658 mmHg 34%
    10:00 +28°C° 0 mm 1 mps 658 mmHg 31%
    11:00 +30°C° 0 mm 2 mps 658 mmHg 28%
    12:00 +31°C° 0 mm 2 mps 657 mmHg 26%
    13:00 +31°C° 0 mm 2 mps 657 mmHg 25%
    14:00 +33°C° 0 mm 3 mps 656 mmHg 23%
    15:00 +33°C° 0 mm 3 mps 656 mmHg 24%
    16:00 +33°C° 0 mm 3 mps 656 mmHg 25%
    17:00 +31°C° 0 mm 3 mps 655 mmHg 25%
    18:00 +28°C° 0 mm 2 mps 655 mmHg 33%
    19:00 +25°C° 0 mm 2 mps 654 mmHg 40%
    20:00 +22°C° 0 mm 1 mps 654 mmHg 48%
    21:00 +21°C° 0 mm 1 mps 654 mmHg 49%
    22:00 +21°C° 0 mm 1 mps 654 mmHg 51%
    23:00 +20°C° 0 mm 1 mps 654 mmHg 53%
    Show more